Stations météo

réclame
Mon MeteoGroup
Leucate/Semaphore, France (7666): Température de l'air & dewpoint: 11.01.2018 07:00:00 - 17.01.2018 07:00:00 (CET)Leucate/Semaphore, France (7666): Vitesse du vent & gusts: 11.01.2018 07:00:00 - 17.01.2018 07:00:00 (CET)Leucate/Semaphore, France (7666): Direction du vent: 11.01.2018 07:00:00 - 17.01.2018 07:00:00 (CET)Leucate/Semaphore, France (7666): reduced air pressure: 11.01.2018 07:00:00 - 17.01.2018 07:00:00 (CET)Leucate/Semaphore, France (7666): visibility: 11.01.2018 07:00:00 - 17.01.2018 07:00:00 (CET)Leucate/Semaphore, France (7666): Quantités de précipitations: 11.01.2018 07:00:00 - 17.01.2018 07:00:00 (CET)
Date & Time tt [°C] td [°C] ff [km/h] ff [knt] fx [km/h] fx [knt] dd ppp [hPa] vv [km] rr [mm]
17.01.2018 07:00:00 11,8 4,0 47 26 95 51 NW 1015,4 25 0,0
17.01.2018 06:00:00 12,1 4,1 44 24 108 58 NW 1014,5 - 0,0
17.01.2018 05:00:00 12,8 5,5 46 25 101 55 WNW 1013,9 - 0,0
17.01.2018 04:00:00 13,8 8,0 48 26 103 56 WNW 1013,8 25 0,0
17.01.2018 03:00:00 15,3 7,3 37 20 90 49 WNW 1013,5 - 0,0
17.01.2018 02:00:00 14,5 9,1 33 18 97 52 WNW 1013,5 - 0,0
17.01.2018 01:00:00 15,3 9,2 37 20 68 37 WNW 1014,3 - 0,0
17.01.2018 00:00:00 16,1 8,6 34 18 83 45 WNW 1015,2 - 0,0
16.01.2018 23:00:00 16,7 8,1 40 22 82 45 WNW 1015,2 - 0,0
16.01.2018 22:00:00 16,6 8,0 30 16 83 45 WNW 1015,6 - 0,0
16.01.2018 21:00:00 16,4 7,9 27 15 66 36 WNW 1016,1 - 0,0
16.01.2018 20:00:00 16,6 7,5 37 20 73 39 WNW 1016,3 - 0,0
16.01.2018 19:00:00 16,7 7,6 25 14 59 32 WNW 1016,2 15 0,0
16.01.2018 18:00:00 16,9 7,3 34 19 68 37 WNW 1016,0 - 0,0
16.01.2018 17:00:00 16,7 7,6 29 16 64 34 WNW 1016,2 - 0,0
16.01.2018 16:00:00 17,1 8,0 22 12 75 40 WNW 1016,8 20 0,0
16.01.2018 15:00:00 16,8 8,5 22 12 77 42 WNW 1016,9 - 0,0
16.01.2018 14:00:00 17,0 8,4 18 10 80 43 WNW 1017,2 - 0,0
16.01.2018 13:00:00 17,1 7,7 37 20 70 38 WNW 1018,2 20 0,0
16.01.2018 12:00:00 17,6 8,2 28 15 73 40 WNW 1018,4 - 0,0
16.01.2018 11:00:00 16,5 8,2 26 14 61 33 WNW 1018,7 - 0,0
16.01.2018 10:00:00 15,9 8,1 27 15 69 37 WNW 1018,1 - 0,0
16.01.2018 09:00:00 15,5 7,5 16 9 50 27 WNW 1017,9 - 0,0
16.01.2018 08:00:00 15,6 7,4 23 13 48 26 WNW 1017,2 - 0,0
16.01.2018 07:00:00 15,4 7,7 19 10 47 25 WNW 1017,2 15 0,0
16.01.2018 06:00:00 15,3 7,6 18 10 38 21 WNW 1017,0 - 0,0
16.01.2018 05:00:00 14,4 7,4 15 8 32 17 W 1016,9 - 0,0
16.01.2018 04:00:00 13,8 7,6 20 11 46 25 W 1017,2 15 0,0
16.01.2018 03:00:00 10,0 4,8 15 8 25 14 SW 1018,1 - 0,0
16.01.2018 02:00:00 8,9 5,5 11 6 21 11 WSW 1018,7 - 0,0
16.01.2018 01:00:00 10,7 3,7 5 3 22 12 SSW 1019,2 - 0,0
16.01.2018 00:00:00 10,6 3,8 15 8 32 17 W 1020,2 - 0,0
15.01.2018 23:00:00 8,8 6,1 16 8 20 11 SW 1020,0 - 0,0
15.01.2018 22:00:00 9,1 6,0 12 6 - - WSW 1020,3 - 0,0
15.01.2018 21:00:00 9,5 5,5 12 6 14 8 SW 1019,8 - 0,0
15.01.2018 20:00:00 9,4 5,4 7 4 24 13 W 1020,7 - 0,0
15.01.2018 19:00:00 9,8 6,0 13 7 26 14 SSW 1020,4 18 0,0
15.01.2018 18:00:00 10,1 6,1 14 7 - - SW 1020,8 - 0,0
15.01.2018 17:00:00 11,0 6,9 19 10 - - S 1020,7 - 0,0
15.01.2018 16:00:00 11,6 6,1 11 6 16 9 SSE 1021,5 15 0,0
15.01.2018 15:00:00 13,2 4,3 12 7 - - NNW 1021,1 - 0,0
15.01.2018 14:00:00 13,3 4,7 14 7 24 13 NNW 1021,3 - 0,0
15.01.2018 13:00:00 12,4 4,6 14 8 31 17 NNW 1022,5 15 0,0
15.01.2018 12:00:00 11,9 5,1 17 9 38 20 NW 1024,0 - 0,0
15.01.2018 11:00:00 10,1 5,1 16 9 37 20 NW 1024,1 - 0,0
15.01.2018 10:00:00 8,3 4,7 15 8 32 17 NW 1023,6 15 0,0
15.01.2018 09:00:00 8,1 4,5 18 10 30 16 NW 1023,2 - 0,0
15.01.2018 08:00:00 7,8 4,7 15 8 32 17 NW 1022,7 - 0,0
15.01.2018 07:00:00 7,9 5,0 18 10 31 17 NNW 1022,1 - 0,0
15.01.2018 06:00:00 7,6 5,2 16 9 33 18 NNW 1021,9 - 0,0
15.01.2018 05:00:00 7,5 5,5 18 10 31 17 NNW 1021,6 - 0,2
15.01.2018 04:00:00 7,2 5,8 15 8 39 21 NW 1021,6 15 0,0
15.01.2018 03:00:00 7,2 6,0 24 13 39 21 NNW 1021,7 - 1,4
15.01.2018 02:00:00 7,2 5,8 22 12 41 22 NW 1021,3 - 1,0
15.01.2018 01:00:00 7,5 5,3 22 12 40 22 NW 1021,2 - 0,0
15.01.2018 00:00:00 7,4 5,5 19 10 47 26 NW 1021,0 - 0,8
14.01.2018 23:00:00 7,6 5,4 27 15 47 25 NW 1019,9 - 0,0
14.01.2018 22:00:00 7,5 5,6 27 15 45 25 NW 1019,3 - 0,4
14.01.2018 21:00:00 7,3 5,8 26 14 43 23 NW 1018,7 - 1,2
14.01.2018 20:00:00 7,3 6,4 24 13 43 23 NW 1018,5 - 3,7
14.01.2018 19:00:00 7,4 6,2 21 11 40 22 NW 1017,8 - 3,4
14.01.2018 18:00:00 7,9 6,0 16 9 29 15 NW 1017,4 - 1,6
14.01.2018 17:00:00 8,3 5,8 16 9 32 17 NW 1016,5 - 0,4
14.01.2018 16:00:00 9,4 5,2 16 9 31 17 NW 1016,2 15 0,0
14.01.2018 15:00:00 10,0 4,8 16 9 34 18 NW 1015,7 - 0,0
14.01.2018 14:00:00 10,3 4,9 16 9 31 17 NNW 1015,6 - 0,0
14.01.2018 13:00:00 10,5 4,6 15 8 25 14 NNW 1015,7 15 0,0
14.01.2018 12:00:00 10,5 4,4 8 5 21 11 NW 1016,1 - 0,0
14.01.2018 11:00:00 10,1 4,0 10 5 22 12 WNW 1016,0 - 0,0
14.01.2018 10:00:00 8,8 3,6 3 1 13 7 SSE 1015,3 15 0,0
14.01.2018 09:00:00 8,1 3,4 8 5 24 13 NW 1014,6 - 0,0
14.01.2018 08:00:00 8,4 4,0 15 8 24 13 NNW 1014,0 - 0,0
14.01.2018 07:00:00 8,2 4,2 14 7 25 14 NW 1013,5 - 0,0
14.01.2018 06:00:00 8,7 4,9 15 8 29 16 NNW 1013,2 - 0,2
14.01.2018 05:00:00 10,0 7,2 8 4 36 19 W 1013,1 - 0,0
14.01.2018 04:00:00 11,1 8,8 34 18 56 31 S 1012,8 18 0,0
14.01.2018 03:00:00 11,1 8,7 46 25 58 32 SSE 1012,7 - 0,0
14.01.2018 02:00:00 11,7 8,5 48 26 69 37 SSE 1012,7 - 0,0
14.01.2018 01:00:00 11,8 8,3 50 27 74 40 SSE 1013,3 - 0,0
14.01.2018 00:00:00 11,9 8,2 59 32 85 46 SSE 1013,4 - 0,0
13.01.2018 23:00:00 11,9 8,0 62 34 78 42 SSE 1013,2 - 0,0
13.01.2018 22:00:00 11,9 8,2 50 27 61 33 SSE 1013,8 - 0,0
13.01.2018 21:00:00 12,0 7,3 41 22 54 29 S 1014,4 - 0,0
13.01.2018 20:00:00 11,8 7,1 37 20 49 26 S 1014,3 - 0,0
13.01.2018 19:00:00 11,8 6,7 31 17 46 25 S 1014,4 15 0,0
13.01.2018 18:00:00 11,8 6,5 36 19 48 26 SSE 1014,3 - 0,0
13.01.2018 17:00:00 12,0 6,3 35 19 49 27 SSE 1014,1 - 0,0
13.01.2018 16:00:00 12,3 5,7 40 21 51 27 SSE 1014,5 15 0,0
13.01.2018 15:00:00 11,9 5,5 32 17 48 26 SSE 1015,1 - 0,0
13.01.2018 14:00:00 11,1 3,4 14 8 20 11 S 1016,0 - 0,0
13.01.2018 13:00:00 9,6 2,9 8 5 23 12 S 1017,2 15 0,0
13.01.2018 12:00:00 9,7 3,9 21 11 34 18 SSE 1018,4 - 0,0
13.01.2018 11:00:00 10,5 4,8 13 7 46 25 SSE 1019,0 - 0,0
13.01.2018 10:00:00 10,0 6,3 29 16 42 23 E 1018,8 15 0,0
13.01.2018 09:00:00 9,6 5,4 26 14 40 21 E 1019,2 - 0,0
13.01.2018 08:00:00 5,4 3,7 10 5 18 10 N 1019,9 - 0,0
13.01.2018 07:00:00 3,7 1,9 10 5 15 8 N 1020,0 15 0,0
13.01.2018 06:00:00 3,0 0,6 10 5 14 8 NW 1020,5 - 0,0
13.01.2018 05:00:00 4,0 1,5 9 5 12 7 NNW 1020,8 - 0,0
13.01.2018 04:00:00 5,7 3,0 0 0 7 4 N 1021,2 20 0,0
13.01.2018 03:00:00 5,7 2,2 3 1 9 5 SSW 1021,6 - 0,0
13.01.2018 02:00:00 6,5 1,8 3 2 10 5 S 1021,9 - 0,0
13.01.2018 01:00:00 6,3 0,4 7 4 27 14 WSW 1022,4 - 0,0
13.01.2018 00:00:00 7,2 0,8 16 9 27 14 NW 1022,7 - 0,0
12.01.2018 23:00:00 7,0 1,1 14 7 35 19 NW 1023,0 - 0,0
12.01.2018 22:00:00 7,4 1,2 24 13 39 21 WNW 1023,0 - 0,0
12.01.2018 21:00:00 7,6 1,4 24 13 40 22 WNW 1022,9 - 0,0
12.01.2018 20:00:00 7,5 1,6 22 12 44 24 WNW 1022,9 - 0,0
12.01.2018 19:00:00 7,5 2,0 26 14 51 27 NW 1022,6 15 0,0
12.01.2018 18:00:00 8,1 2,7 25 14 53 28 NW 1022,2 - 0,0
12.01.2018 17:00:00 9,2 3,2 31 17 64 35 NW 1021,6 - 0,0
12.01.2018 16:00:00 10,7 3,5 27 15 76 41 NW 1021,0 20 0,0
12.01.2018 15:00:00 10,7 2,8 38 20 76 41 NW 1020,4 - 0,0
12.01.2018 14:00:00 11,3 2,8 36 19 81 44 NW 1020,5 - 0,0
12.01.2018 13:00:00 11,0 4,0 35 19 71 38 NW 1021,1 20 0,0
12.01.2018 12:00:00 10,4 3,9 33 18 64 35 NW 1022,3 - 0,0
12.01.2018 11:00:00 9,2 3,6 34 18 72 39 NW 1022,4 - 0,0
12.01.2018 10:00:00 8,6 3,6 32 17 64 34 NW 1021,9 15 0,0
12.01.2018 09:00:00 7,5 3,5 35 19 70 38 NW 1021,8 - 0,0
12.01.2018 08:00:00 6,8 2,9 32 17 55 30 NW 1021,7 - 0,0
12.01.2018 07:00:00 6,7 3,1 29 16 58 32 NW 1021,5 - 0,0
12.01.2018 06:00:00 6,8 3,2 27 15 60 33 NW 1021,0 - 0,0
12.01.2018 05:00:00 6,7 3,3 29 16 68 37 NW 1020,5 - 0,0
12.01.2018 04:00:00 6,8 3,0 29 16 62 33 NW 1020,3 - 0,0
12.01.2018 03:00:00 7,1 2,8 32 18 66 36 NW 1020,2 - 0,0
12.01.2018 02:00:00 7,6 2,7 31 17 72 39 NW 1019,5 - 0,0
12.01.2018 01:00:00 7,6 2,7 35 19 78 42 NW 1019,3 - 0,0
12.01.2018 00:00:00 8,0 2,9 44 24 80 43 NW 1019,0 - 0,0
11.01.2018 23:00:00 8,0 2,7 35 19 74 40 NW 1018,7 - 0,0
11.01.2018 22:00:00 8,2 2,4 35 19 68 37 NW 1018,2 - 0,0
11.01.2018 21:00:00 8,1 3,0 26 14 57 31 NW 1018,2 - 0,0
11.01.2018 20:00:00 8,4 2,8 35 19 68 37 NW 1017,6 - 0,0
11.01.2018 19:00:00 8,3 2,9 29 16 59 32 NW 1016,7 15 0,0
11.01.2018 18:00:00 8,7 3,3 27 14 58 31 NW 1016,5 - 0,0
11.01.2018 17:00:00 9,0 3,2 32 17 68 37 NW 1015,6 - 0,0
11.01.2018 16:00:00 9,3 3,3 33 18 74 40 NW 1014,8 20 0,0
11.01.2018 15:00:00 9,5 3,0 35 19 72 39 NW 1014,3 - 0,0
11.01.2018 14:00:00 9,8 3,3 39 21 76 41 NW 1014,0 - 0,0
11.01.2018 13:00:00 9,2 3,0 36 19 79 43 NW 1014,4 - 0,0
11.01.2018 12:00:00 9,1 3,3 37 20 78 42 NW 1014,9 - 0,0
11.01.2018 11:00:00 9,0 3,0 34 19 68 37 NW 1014,5 - 0,0
11.01.2018 10:00:00 8,8 2,8 33 18 61 33 NW 1013,9 20 0,0
11.01.2018 09:00:00 8,4 2,8 29 16 59 32 NW 1013,4 - 0,0
11.01.2018 08:00:00 8,4 2,8 31 17 67 36 NW 1012,9 - 0,0
11.01.2018 07:00:00 8,2 3,2 27 15 65 35 NW 1012,8 18 0,0

tt = Température de l'air
td = dewpoint
ff = Vitesse du vent
fx = gusts
dd = Direction du vent
ppp = reduced air pressure
vv = visibility
rr = Quantités de précipitations

stations d'obs. à proximité